THORAD AGENA D DEB, 39592

Orbit data source: Space-Track

THORAD AGENA D DEB, 39592 is space debris in SSO originally from a launch on Wed, 08 Apr 1970 UTC launched from the Air Force Western Test Range (AFWTR). Debris objects in space refer to the collection of defunct objects orbiting the Earth. Examples of debris include non-operational satellites, rocket bodies, and fragments generated from explosions, collisions, or faulty payload assembly.

Loading next visibility...
Identifier
39592, 1970-025QT
Orbit
SSO
Country
Flag of USUS
Related business
Manufacturer
Unknown
Mission
Spacecraft
Bus & Motor
Unknown
Mass
Unknown
Launch date (UTC)
1970-04-08 (56 years ago)
Launch vehicle
Unknown
Launch site
Air Force Western Test Range (AFWTR)
Object type
Payload
Rocket body
Debris
Shape & HBR
Unknown shape, 0.1 m
Radar Cross Section
Small (<0.1 m²)

Expand to show TLE details & history
Last TLE update: 22 hours ago

TLE from 22 hours ago
0 THORAD AGENA D DEB
1 39592U 70025QT  25288.96256299  .00001339  00000-0  19184-2 0  9996
2 39592 100.1477 297.6836 0002036 298.5312  61.5620 13.58040091575998
Epoch: 2025-10-15T23:06Z
TLE epoch observation values (Epoch: 2025-10-15T23:06:05.442Z)
Latitude
-0.00002°
Longitude
-73.56818°
Altitude
1,044.885 km
Speed
7.33 km/s
True Right ascension
19h 50m 44s
True Declination
0° 00' 00"
Sunlit
Object was in daylight at epoch
Visualization orbit readout
Latitude
Unknown
Longitude
Unknown
Altitude
Unknown
Speed
Unknown
Apparent Right ascension
Unknown
Apparent Declination
Unknown
Sunlit
N/A
Visualization observer readout
Local Sidereal Time
16:02:20
Azimuth
Unknown
Elevation
Unknown
Doppler factor
Unknown
Orbital elements
Apogee altitude
1,041.648 km
Perigee altitude
1,038.627 km
Semi-major axis
7,418.275 km
Eccentricity
0.0002
Inclination
100.1477°
RAAN
297.6836°
Arg. of periapsis
298.5312°
True anomaly
61.58252°
Mean anomaly
61.562°
Eccentric anomaly
61.57226°
Mean motion
3.39695 °/min
Orbital period
105.98 mins
BSTAR
0.0019184

Documentation

Showing up to 5 results
|